| time (UTC) | temp C | wind direction | speed KPH | gust KPH | rain 1hr cm | rain 24hr cm | rain mn cm | humidity % | barometer mb |
| 20260504215009 | 26 | 275 | 0.0 | 3.2 | 0.00 | 0.00 | 0.00 | 46 | 1000.2 |
| 20260504214549 | 26 | 280 | 0.0 | 3.2 | 0.00 | 0.00 | 0.00 | 45 | 1000.3 |
| 20260504214028 | 26 | 264 | 0.0 | 3.2 | 0.00 | 0.00 | 0.00 | 45 | 1000.3 |
| 20260504213503 | 27 | 131 | 0.0 | 4.8 | 0.00 | 0.00 | 0.00 | 45 | 1000.3 |
| 20260504213043 | 27 | 118 | 0.0 | 6.4 | 0.00 | 0.00 | 0.00 | 45 | 1000.3 |
| 20260504212519 | 27 | 176 | 0.0 | 9.7 | 0.00 | 0.00 | 0.00 | 45 | 1000.4 |
| 20260504212100 | 27 | 210 | 0.0 | 9.7 | 0.00 | 0.00 | 0.00 | 46 | 1000.3 |
| 20260504211544 | 27 | 203 | 0.0 | 8.0 | 0.00 | 0.00 | 0.00 | 45 | 1000.4 |
| 20260504211012 | 27 | 218 | 1.6 | 8.0 | 0.00 | 0.00 | 0.00 | 46 | 1000.3 |
| 20260504210553 | 27 | 126 | 1.6 | 8.0 | 0.00 | 0.00 | 0.00 | 45 | 1000.4 |
| 20260504210047 | 27 | 129 | 1.6 | 6.4 | 0.00 | 0.00 | 0.00 | 44 | 1000.4 |
| 20260504205506 | 27 | 146 | 0.0 | 3.2 | 0.00 | 0.00 | 0.00 | 46 | 1000.4 |
| 20260504205047 | 27 | 224 | 0.0 | 4.8 | 0.00 | 0.00 | 0.00 | 46 | 1000.4 |
| 20260504204524 | 27 | 274 | 0.0 | 3.2 | 0.00 | 0.00 | 0.00 | 44 | 1000.4 |
| 20260504204108 | 27 | 174 | 0.0 | 3.2 | 0.00 | 0.00 | 0.00 | 45 | 1000.5 |
| 20260504203541 | 27 | 269 | 0.0 | 3.2 | 0.00 | 0.00 | 0.00 | 45 | 1000.6 |
| 20260504203023 | 27 | 181 | 0.0 | 3.2 | 0.00 | 0.00 | 0.00 | 46 | 1000.7 |
| 20260504202559 | 27 | 283 | 0.0 | 3.2 | 0.00 | 0.00 | 0.00 | 46 | 1000.8 |
| 20260504202036 | 26 | 172 | 0.0 | 4.8 | 0.00 | 0.00 | 0.00 | 47 | 1000.9 |
| 20260504201511 | 26 | 321 | 0.0 | 6.4 | 0.00 | 0.00 | 0.00 | 47 | 1000.8 |
| 20260504201054 | 26 | 278 | 0.0 | 6.4 | 0.00 | 0.00 | 0.00 | 45 | 1000.7 |
| 20260504200529 | 26 | 167 | 0.0 | 6.4 | 0.00 | 0.00 | 0.00 | 47 | 1000.8 |
| 20260504200012 | 26 | 295 | 0.0 | 4.8 | 0.00 | 0.00 | 0.00 | 45 | 1000.9 |
| 20260504195554 | 26 | 274 | 0.0 | 4.8 | 0.00 | 0.00 | 0.00 | 45 | 1000.9 |
| 20260504195029 | 26 | 158 | 0.0 | 4.8 | 0.00 | 0.00 | 0.00 | 46 | 1000.9 |
| 20260504194508 | 26 | 159 | 0.0 | 4.8 | 0.00 | 0.00 | 0.00 | 46 | 1000.9 |
| 20260504194043 | 26 | 252 | 0.0 | 3.2 | 0.00 | 0.00 | 0.00 | 46 | 1000.9 |
| 20260504193518 | 26 | 284 | 0.0 | 6.4 | 0.00 | 0.00 | 0.00 | 48 | 1000.9 |
| 20260504193100 | 26 | 269 | 0.0 | 6.4 | 0.00 | 0.00 | 0.00 | 46 | 1001.1 |
| 20260504192535 | 26 | 270 | 1.6 | 6.4 | 0.00 | 0.00 | 0.00 | 46 | 1001.1 |
| 20260504192012 | 26 | 293 | 0.0 | 4.8 | 0.00 | 0.00 | 0.00 | 49 | 1001.1 |
| 20260504191554 | 25 | 250 | 0.0 | 4.8 | 0.00 | 0.00 | 0.00 | 47 | 1001.0 |
| 20260504191029 | 25 | 277 | 1.6 | 4.8 | 0.00 | 0.00 | 0.00 | 47 | 1001.0 |
| 20260504190505 | 25 | 297 | 0.0 | 6.4 | 0.00 | 0.00 | 0.00 | 49 | 1001.2 |
| 20260504190103 | 25 | 169 | 0.0 | 6.4 | 0.00 | 0.00 | 0.00 | 50 | 1001.1 |
| 20260504185525 | 25 | 177 | 0.0 | 6.4 | 0.00 | 0.00 | 0.00 | 49 | 1001.2 |
| 20260504185103 | 25 | 148 | 0.0 | 6.4 | 0.00 | 0.00 | 0.00 | 46 | 1001.2 |
| 20260504184541 | 25 | 281 | 1.6 | 9.7 | 0.00 | 0.00 | 0.00 | 47 | 1001.3 |
| 20260504184014 | 25 | 195 | 0.0 | 9.7 | 0.00 | 0.00 | 0.00 | 49 | 1001.4 |
| 20260504183555 | 25 | 150 | 0.0 | 6.4 | 0.00 | 0.00 | 0.00 | 51 | 1001.3 |
| 20260504183031 | 25 | 144 | 0.0 | 6.4 | 0.00 | 0.00 | 0.00 | 51 | 1001.4 |
| 20260504182509 | 25 | 112 | 0.0 | 8.0 | 0.00 | 0.00 | 0.00 | 51 | 1001.4 |
| 20260504182048 | 25 | 153 | 3.2 | 8.0 | 0.00 | 0.00 | 0.00 | 50 | 1001.3 |
| 20260504181525 | 25 | 195 | 0.0 | 6.4 | 0.00 | 0.00 | 0.00 | 48 | 1001.4 |
| 20260504181106 | 25 | 127 | 1.6 | 4.8 | 0.00 | 0.00 | 0.00 | 52 | 1001.4 |
| 20260504180541 | 25 | 173 | 0.0 | 8.0 | 0.00 | 0.00 | 0.00 | 50 | 1001.5 |
| 20260504180020 | 25 | 183 | 0.0 | 8.0 | 0.00 | 0.00 | 0.00 | 49 | 1001.6 |
| 20260504175557 | 25 | 198 | 0.0 | 8.0 | 0.00 | 0.00 | 0.00 | 49 | 1001.5 |
| 20260504175036 | 25 | 157 | 0.0 | 4.8 | 0.00 | 0.00 | 0.00 | 49 | 1001.6 |
| 20260504174509 | 24 | 319 | 0.0 | 4.8 | 0.00 | 0.00 | 0.00 | 53 | 1001.7 |
| 20260504174052 | 24 | 51 | 0.0 | 3.2 | 0.00 | 0.00 | 0.00 | 52 | 1001.8 |
| 20260504173526 | 24 | 93 | 0.0 | 6.4 | 0.00 | 0.00 | 0.00 | 51 | 1001.9 |
| 20260504173008 | 24 | 93 | 1.6 | 8.0 | 0.00 | 0.00 | 0.00 | 50 | 1001.9 |
| 20260504172544 | 24 | 157 | 0.0 | 8.0 | 0.00 | 0.00 | 0.00 | 53 | 1001.9 |
| 20260504172020 | 23 | 314 | 0.0 | 6.4 | 0.00 | 0.00 | 0.00 | 52 | 1002.0 |
| 20260504171602 | 23 | 302 | 1.6 | 4.8 | 0.00 | 0.00 | 0.00 | 49 | 1002.0 |
| 20260504171036 | 23 | 259 | 0.0 | 3.2 | 0.00 | 0.00 | 0.00 | 52 | 1002.0 |
| 20260504170513 | 23 | 173 | 0.0 | 4.8 | 0.00 | 0.00 | 0.00 | 53 | 1002.0 |
| 20260504151043 | 21 | 278 | 0.0 | 6.4 | 0.00 | 0.00 | 0.00 | 57 | 1002.6 |
| 20260504150520 | 20 | 229 | 1.6 | 8.0 | 0.00 | 0.00 | 0.00 | 55 | 1002.6 |
| 20260504141015 | 19 | 164 | 0.0 | 8.0 | 0.00 | 0.00 | 0.00 | 59 | 1002.8 |
| 20260504140556 | 19 | 214 | 0.0 | 8.0 | 0.00 | 0.00 | 0.00 | 60 | 1002.8 |
| 20260504130527 | 17 | 155 | 0.0 | 3.2 | 0.00 | 0.00 | 0.00 | 62 | 1002.9 |
| 20260504110538 | 17 | 122 | 0.0 | 1.6 | 0.00 | 0.00 | 0.00 | 59 | 1003.5 |
| 20260504100510 | 18 | 235 | 0.0 | 4.8 | 0.00 | 0.00 | 0.00 | 56 | 1003.5 |
| 20260504081604 | 16 | 257 | 0.0 | 0.0 | 0.00 | 0.00 | 0.00 | 66 | 1004.4 |
| 20260504081040 | 16 | 257 | 0.0 | 0.0 | 0.00 | 0.00 | 0.00 | 66 | 1004.4 |
| 20260504080516 | 16 | 257 | 0.0 | 0.0 | 0.00 | 0.00 | 0.00 | 66 | 1004.5 |
| 20260504060103 | 18 | 257 | 0.0 | 3.2 | 0.00 | 0.00 | 0.00 | 60 | 1006.4 |
| 20260504050558 | 17 | 279 | 0.0 | 0.0 | 0.00 | 0.00 | 0.00 | 67 | 1006.8 |
| 20260504045509 | 18 | 279 | 0.0 | 0.0 | 0.00 | 0.00 | 0.00 | 66 | 1006.6 |
| 20260504045051 | 18 | 279 | 0.0 | 0.0 | 0.00 | 0.00 | 0.00 | 66 | 1006.5 |
| 20260504044526 | 18 | 279 | 0.0 | 0.0 | 0.00 | 0.00 | 0.00 | 66 | 1006.5 |
| 20260504044107 | 18 | 279 | 0.0 | 0.0 | 0.00 | 0.00 | 0.00 | 65 | 1006.5 |
| 20260504043539 | 18 | 279 | 0.0 | 0.0 | 0.00 | 0.00 | 0.00 | 65 | 1006.4 |
| 20260504043014 | 18 | 279 | 0.0 | 0.0 | 0.00 | 0.00 | 0.00 | 65 | 1006.4 |
| 20260504042554 | 18 | 279 | 0.0 | 0.0 | 0.00 | 0.00 | 0.00 | 65 | 1006.5 |
| 20260504042031 | 18 | 279 | 0.0 | 1.6 | 0.00 | 0.00 | 0.00 | 66 | 1006.3 |
| 20260504041506 | 18 | 158 | 0.0 | 1.6 | 0.00 | 0.00 | 0.00 | 67 | 1006.3 |
| 20260504041047 | 18 | 158 | 0.0 | 1.6 | 0.00 | 0.00 | 0.00 | 68 | 1006.5 |
| 20260504040523 | 17 | 158 | 0.0 | 0.0 | 0.00 | 0.00 | 0.00 | 68 | 1006.3 |
| 20260504040108 | 17 | 158 | 0.0 | 0.0 | 0.00 | 0.00 | 0.00 | 67 | 1006.5 |
| 20260504035540 | 17 | 158 | 0.0 | 0.0 | 0.00 | 0.00 | 0.00 | 68 | 1006.7 |
| 20260504035016 | 18 | 158 | 0.0 | 0.0 | 0.00 | 0.00 | 0.00 | 68 | 1006.8 |
| 20260504034555 | 18 | 158 | 0.0 | 0.0 | 0.00 | 0.00 | 0.00 | 68 | 1006.9 |
| 20260504034030 | 18 | 158 | 0.0 | 3.2 | 0.00 | 0.00 | 0.00 | 67 | 1006.9 |
| 20260504033512 | 18 | 158 | 0.0 | 3.2 | 0.00 | 0.00 | 0.00 | 68 | 1006.9 |
| 20260504033049 | 18 | 158 | 0.0 | 0.0 | 0.00 | 0.00 | 0.00 | 67 | 1007.0 |
| 20260504032522 | 18 | 158 | 0.0 | 0.0 | 0.00 | 0.00 | 0.00 | 66 | 1007.0 |
| 20260504032104 | 18 | 158 | 0.0 | 0.0 | 0.00 | 0.00 | 0.00 | 67 | 1007.0 |
| 20260504031558 | 18 | 158 | 0.0 | 0.0 | 0.00 | 0.00 | 0.00 | 65 | 1007.1 |
| 20260504031016 | 18 | 158 | 0.0 | 0.0 | 0.00 | 0.00 | 0.00 | 65 | 1007.1 |
| 20260504030556 | 18 | 158 | 0.0 | 0.0 | 0.00 | 0.00 | 0.00 | 66 | 1007.0 |
| 20260504030040 | 18 | 158 | 0.0 | 0.0 | 0.00 | 0.00 | 0.00 | 65 | 1007.1 |
| 20260504025509 | 18 | 158 | 0.0 | 0.0 | 0.00 | 0.00 | 0.00 | 64 | 1007.1 |
| 20260504025054 | 18 | 158 | 0.0 | 0.0 | 0.00 | 0.00 | 0.00 | 63 | 1007.1 |
| 20260504024526 | 18 | 158 | 0.0 | 0.0 | 0.00 | 0.00 | 0.00 | 62 | 1007.2 |
| 20260504024001 | 19 | 158 | 0.0 | 0.0 | 0.00 | 0.00 | 0.00 | 62 | 1007.1 |
| 20260504023544 | 19 | 158 | 0.0 | 0.0 | 0.00 | 0.00 | 0.00 | 61 | 1007.0 |
| 20260504023019 | 19 | 158 | 0.0 | 0.0 | 0.00 | 0.00 | 0.00 | 60 | 1007.0 |
| 20260504022600 | 19 | 158 | 0.0 | 0.0 | 0.00 | 0.00 | 0.00 | 59 | 1007.0 |
| 20260504022035 | 20 | 158 | 0.0 | 0.0 | 0.00 | 0.00 | 0.00 | 58 | 1007.1 |
| 20260504021512 | 20 | 158 | 0.0 | 0.0 | 0.00 | 0.00 | 0.00 | 57 | 1007.0 |
| 20260504021052 | 20 | 158 | 0.0 | 0.0 | 0.00 | 0.00 | 0.00 | 57 | 1007.1 |
| 20260504020528 | 20 | 158 | 0.0 | 0.0 | 0.00 | 0.00 | 0.00 | 56 | 1007.0 |
| 20260504020004 | 20 | 158 | 0.0 | 0.0 | 0.00 | 0.00 | 0.00 | 55 | 1007.1 |
| 20260504015546 | 20 | 158 | 0.0 | 0.0 | 0.00 | 0.00 | 0.00 | 55 | 1007.1 |
| 20260504015022 | 21 | 158 | 0.0 | 0.0 | 0.00 | 0.00 | 0.00 | 53 | 1007.0 |
| 20260504014602 | 21 | 158 | 0.0 | 0.0 | 0.00 | 0.00 | 0.00 | 53 | 1007.0 |
| 20260504014037 | 21 | 158 | 0.0 | 0.0 | 0.00 | 0.00 | 0.00 | 54 | 1007.1 |
| 20260504013513 | 21 | 158 | 0.0 | 0.0 | 0.00 | 0.00 | 0.00 | 52 | 1007.0 |
| 20260504013059 | 22 | 158 | 0.0 | 0.0 | 0.00 | 0.00 | 0.00 | 52 | 1007.0 |
| 20260504012530 | 22 | 158 | 0.0 | 0.0 | 0.00 | 0.00 | 0.00 | 50 | 1007.0 |
| 20260504012006 | 22 | 158 | 0.0 | 0.0 | 0.00 | 0.00 | 0.00 | 49 | 1006.9 |
| 20260504011553 | 22 | 158 | 0.0 | 0.0 | 0.00 | 0.00 | 0.00 | 48 | 1006.9 |
| 20260504011022 | 22 | 158 | 0.0 | 0.0 | 0.00 | 0.00 | 0.00 | 47 | 1006.9 |
| 20260504010604 | 23 | 158 | 0.0 | 0.0 | 0.00 | 0.00 | 0.00 | 46 | 1006.8 |
| 20260504010044 | 23 | 158 | 0.0 | 0.0 | 0.00 | 0.00 | 0.00 | 45 | 1006.9 |
| 20260504005516 | 23 | 158 | 0.0 | 0.0 | 0.00 | 0.00 | 0.00 | 43 | 1007.0 |
| 20260504005056 | 23 | 158 | 0.0 | 0.0 | 0.00 | 0.00 | 0.00 | 42 | 1007.0 |
| 20260504004532 | 23 | 158 | 0.0 | 0.0 | 0.00 | 0.00 | 0.00 | 39 | 1007.0 |
| 20260504004009 | 23 | 158 | 0.0 | 0.0 | 0.00 | 0.00 | 0.00 | 38 | 1007.0 |
| 20260504003551 | 24 | 158 | 0.0 | 0.0 | 0.00 | 0.00 | 0.00 | 36 | 1006.9 |
| 20260504003026 | 24 | 158 | 0.0 | 0.0 | 0.00 | 0.00 | 0.00 | 36 | 1007.0 |
| 20260504002504 | 25 | 158 | 0.0 | 0.0 | 0.00 | 0.00 | 0.00 | 34 | 1007.0 |
| 20260504002044 | 25 | 158 | 0.0 | 0.0 | 0.00 | 0.00 | 0.00 | 34 | 1007.0 |
| 20260504001520 | 25 | 248 | 0.0 | 0.0 | 0.00 | 0.00 | 0.00 | 33 | 1007.0 |
| 20260504001101 | 25 | 248 | 0.0 | 1.6 | 0.00 | 0.00 | 0.00 | 32 | 1007.0 |
| 20260504000538 | 26 | 248 | 0.0 | 1.6 | 0.00 | 0.00 | 0.00 | 30 | 1007.0 |
| 20260504000013 | 26 | 248 | 0.0 | 4.8 | 0.00 | 0.00 | 0.00 | 30 | 1007.0 |
| 20260503235553 | 26 | 248 | 0.0 | 6.4 | 0.00 | 0.00 | 0.00 | 30 | 1007.0 |
| 20260503235029 | 26 | 172 | 1.6 | 6.4 | 0.00 | 0.00 | 0.00 | 29 | 1007.0 |
| 20260503234508 | 26 | 259 | 0.0 | 6.4 | 0.00 | 0.00 | 0.00 | 28 | 1007.1 |
| 20260503234046 | 26 | 259 | 0.0 | 1.6 | 0.00 | 0.00 | 0.00 | 29 | 1007.2 |
| 20260503233521 | 26 | 258 | 0.0 | 1.6 | 0.00 | 0.00 | 0.00 | 28 | 1007.2 |
| 20260503233102 | 26 | 258 | 0.0 | 3.2 | 0.00 | 0.00 | 0.00 | 27 | 1007.2 |
| 20260503232535 | 27 | 268 | 0.0 | 4.8 | 0.00 | 0.00 | 0.00 | 26 | 1007.2 |
| 20260503232012 | 27 | 285 | 0.0 | 6.4 | 0.00 | 0.00 | 0.00 | 27 | 1007.2 |
| 20260503231555 | 27 | 298 | 0.0 | 6.4 | 0.00 | 0.00 | 0.00 | 27 | 1007.1 |
| 20260503231028 | 27 | 305 | 0.0 | 4.8 | 0.00 | 0.00 | 0.00 | 27 | 1007.2 |
| 20260503230505 | 27 | 314 | 0.0 | 4.8 | 0.00 | 0.00 | 0.00 | 30 | 1007.2 |
| 20260503230046 | 27 | 276 | 0.0 | 4.8 | 0.00 | 0.00 | 0.00 | 29 | 1007.2 |
| 20260503225524 | 27 | 290 | 0.0 | 4.8 | 0.00 | 0.00 | 0.00 | 30 | 1007.3 |
| 20260503225105 | 27 | 264 | 0.0 | 4.8 | 0.00 | 0.00 | 0.00 | 31 | 1007.3 |
| 20260503224542 | 27 | 276 | 0.0 | 4.8 | 0.00 | 0.00 | 0.00 | 31 | 1007.4 |
| 20260503224017 | 27 | 299 | 1.6 | 8.0 | 0.00 | 0.00 | 0.00 | 30 | 1007.5 |
| 20260503223557 | 27 | 273 | 1.6 | 8.0 | 0.00 | 0.00 | 0.00 | 31 | 1007.5 |
| 20260503223035 | 27 | 293 | 0.0 | 4.8 | 0.00 | 0.00 | 0.00 | 33 | 1007.6 |
| 20260503222510 | 27 | 279 | 0.0 | 4.8 | 0.00 | 0.00 | 0.00 | 34 | 1007.6 |
| 20260503222051 | 27 | 277 | 0.0 | 4.8 | 0.00 | 0.00 | 0.00 | 33 | 1007.7 |
| 20260503221525 | 27 | 301 | 0.0 | 4.8 | 0.00 | 0.00 | 0.00 | 34 | 1007.7 |
| 20260503221003 | 27 | 315 | 0.0 | 6.4 | 0.00 | 0.00 | 0.00 | 35 | 1007.8 |
| 20260503220542 | 26 | 259 | 0.0 | 6.4 | 0.00 | 0.00 | 0.00 | 38 | 1007.8 |
| 20260503220019 | 26 | 328 | 0.0 | 4.8 | 0.00 | 0.00 | 0.00 | 38 | 1007.8 |
| 20260503215559 | 26 | 328 | 0.0 | 4.8 | 0.00 | 0.00 | 0.00 | 38 | 1007.9 |